{"data":{"norad_id":57714,"epoch":"2026-05-25T03:03:14.317056Z","epoch_age_seconds":70838,"freshness":"FRESH","line1":"1 57714U 23129S   26145.12724904  .00002997  00000+0  11834-3 0  9994","line2":"2 57714  43.0055  49.5378 0001576 243.5618 116.5072 15.27598503152338","mean_motion":15.27598503,"eccentricity":0.0001576,"inclination_deg":43.0055,"raan_deg":49.5378,"arg_perigee_deg":243.5618,"mean_anomaly_deg":116.5072,"bstar":0.00011834,"rev_number":15233,"period_min":94.265606909933,"perigee_km":481.91237776342,"apogee_km":484.07500615753,"semimajor_km":6861.1306919605,"source":"CELESTRAK","updated_at":"2026-05-25T13:38:18.373929Z"}}